www.pogodaiklimat.ru

Погода и климат >> Архив погоды >> Россия >> Кировская область >> Кирс


ПОГОДА в Кирсе

  • Прогноз погоды в Кирсе
  • Монитор погоды в Кирсе
  • Климат города

АРХИВ ПОГОДЫ в Кирсе

Время (UTC), дата Ветер
(напр.,м/с)
 
Видим.   Явления Облачность Т
(С)
Тd
(С)
f
(%)
Тe
(С)
Тes
(С)
Комфортность P
(гПа)
Po
(гПа)
Тmin
(С)
Tmax
(С)
R
(мм)
R24
(мм)
S
(см)
03 14.10 СЗ 3-5
{6}
20 км в посл. час ливневой снег 10/10 300 м
[Cb cap]
0.0 -1.7 88 -5 -5 1020.8 999.5 -0.1 0.0
06 14.10 СЗ 3-7
{7}
20 км в посл. час ливневой снег 9/9 300 м
[Cb cap]
+1.1 -2.2 79 -3 -3 1021.4 1000.2 -0.2
09 14.10 С 2-4
{8}
20 км в посл. час ливневой снег 9/9 300 м
[Cb cap]
+1.2 -2.7 75 -2 -2 1022.2 1001.0
12 14.10 С 2-3
{6}
20 км {ливн. осадки} 9/9 1000 м
[Sc]
+1.9 -4.0 65 -1 -1 1021.8 1000.6
15 14.10 штиль 0
{3}
20 км 9/9 1000 м
[Sc]
+1.1 -3.4 72 0 0 1022.1 1000.9 +1.9 0.2
18 14.10 штиль 0
{1}
20 км 10/0
[Ac und]
-0.8 -2.4 89 -2 -2 1021.6 1000.3
21 14.10 штиль 0
{1}
20 км 9/9 1000 м
[Sc]
-0.9 -1.9 93 -2 -2 1021.6 1000.3
00 15.10 Ю 1-2
{2}
20 км 9/9 1000 м
[Sc]
-0.1 -2.4 84 -2 -2 1021.2 999.9
03 15.10 Ю 2-3
{4}
20 км 10/10 600 м
[Sc]
-0.2 -1.9 88 -4 -4 1020.7 999.4 -1.7
06 15.10 Ю 2-3
{4}
4100 м ледяной дождь {ливн. осадки} 10/0
[As op]
+0.5 -0.8 91 -3 -3 1021.0 999.8
09 15.10 Ю 4-6
{7}
4300 м слабый дождь {снег} 10/10 300 м
[Frnb Ns]
+1.5 +0.4 92 -4 -4 1020.1 998.9
12 15.10 Ю 3-5
{7}
2400 м слабый дождь {снег} 10/10 300 м
[Frnb Ns]
+1.7 +1.2 96 -3 -3 1019.1 997.9
15 15.10 Ю 3-5
{6}
4000 м слабый дождь 10/10 300 м
[Frnb Ns]
+1.9 +1.6 98 -3 -3 1017.6 996.6 +1.9 2
18 15.10 ЮЗ 3-5
{6}
1000 м слабый дождь 10/10 300 м
[Frnb Ns]
+2.5 +2.2 98 -2 -2 1016.4 995.4
21 15.10 Ю 1-2
{5}
1000 м слабый дождь 10/10 300 м
[Frnb Ns]
+3.5 +3.3 99 +2 +2 1015.0 994.1
00 16.10 Ю 2-3
{3}
1000 м слабый дождь 10/10 300 м
[Frnb Ns]
+4.8 +4.6 99 +2 +2 1014.3 993.5
03 16.10 З 2-4
{4}
600 м туман {дождь} ?/? +6.6 +6.6 100 +4 +4 1013.9 993.3 +1.9 1
06 16.10 З 3-5
{6}
1500 м дымка {дождь, туман} 10/0
[As op]
+7.2 +6.8 97 +4 +4 1014.0 993.4
09 16.10 З 2-4
{7}
1500 м дымка 10/0
[As op]
+7.8 +7.4 97 +6 +6 1014.5 993.9
12 16.10 ЮЗ 2-4
{6}
3000 м дымка 10/0
[As op]
+8.4 +7.6 95 +6 +6 1014.7 994.2
15 16.10 ЮЗ 2-3
{5}
4000 м дымка 10/0
[As op]
+8.8 +8.0 95 +7 +7 1014.1 993.6 +8.8
18 16.10 ЮЗ 3-5
{7}
4000 м дымка {дождь} 10/0
[As op]
+8.6 +8.2 97 +6 +6 1011.5 991.1
21 16.10 ЮЗ 2-4
{5}
4000 м дымка 10/0
[Ci fib]
+8.4 +7.1 92 +6 +6 1007.7 987.4
00 17.10 З 3-6
{8}
4000 м дымка 10/0
[Ac und]
+8.6 +7.1 90 +6 +6 1006.0 985.7
03 17.10 З 3-5
{7}
20 км 10/10 300 м
[Sc]
+8.4 +6.2 86 +6 +6 1006.0 985.7 +8.2 0.0
06 17.10 СЗ 5-9
{16}
20 км {ливн. осадки} 8/8 1000 м
[Cu med, cong]
+6.0 -0.3 64 +2 +2 1011.7 991.1 +6.0
09 17.10 С 5-1
{14}
20 км 9/9 300 м
[Cb cap]
+6.3 +1.3 70 +2 +2 1015.4 994.7
12 17.10 СЗ 4-8
{13}
20 км в посл. час ливневой дождь 8/8 300 м
[Cb cap]
+6.0 +1.8 74 +2 +2 1018.7 997.9
15 17.10 З 2-4
{11}
20 км 4/4 600 м
[Sc]
+4.2 +0.5 77 +2 +2 1020.5 999.5 +9.1 0.0
18 17.10 С 3-6
{7}
20 км 9/9 1000 м
[Sc]
+4.6 -0.2 71 +1 +1 1021.0 1000.1
21 17.10 СЗ 2-4
{7}
20 км 9/9 1000 м
[Sc]
+4.0 -0.6 72 +1 +1 1021.5 1000.5
00 18.10 СЗ 3-5
{6}
20 км 10/10 600 м
[Sc]
+3.6 -0.2 76 -0 -0 1021.6 1000.6
03 18.10 СЗ 2-2
{6}
20 км 10/10 600 м
[Sc]
+3.2 -0.6 76 0 0 1021.7 1000.7 +3.2
06 18.10 З 2-4
{4}
20 км 9/9 1000 м
[Sc]
+3.8 +0.1 77 +1 +1 1021.1 1000.1 +3.0
09 18.10 З 2-4
{6}
20 км 9/0
[Ac trans Ci fib]
+7.2 +1.3 66 +5 +6 1019.0 998.3
12 18.10 ЮЗ 3-5
{7}
20 км 10/10 300 м
[Cb cap]
+7.8 +1.5 64 +5 +5 1016.3 995.7
15 18.10 ЮЗ 4-7
{8}
20 км в посл. час ливневой дождь 10/10 300 м
[Cb cap]
+6.0 +4.1 88 +2 +2 1012.4 991.8 +8.3 0.7
18 18.10 ЮЗ 4-6
{7}
20 км {ливн. осадки} 10/10 600 м
[Sc]
+7.2 +5.1 86 +4 +4 1011.1 990.6
21 18.10 З 3-5
{7}
20 км 9/9 1000 м
[Sc]
+7.3 +5.3 87 +4 +4 1010.2 989.7
00 19.10 З 2-4
{6}
20 км 9/9 1000 м
[Sc]
+7.4 +5.6 88 +5 +5 1009.5 989.0
03 19.10 Ю 2-2
{5}
8000 м дымка 3/3 300 м
[Sc]
+5.3 +4.8 97 +3 +3 1009.0 988.3 +5.1
06 19.10 ЮЗ 4-6
{6}
4100 м дымка 10/10 300 м
[Frnb]
+6.5 +5.8 95 +3 +3 1007.5 987.1
09 19.10 ЮЗ 5-8
{9}
5000 м дымка 10/9 300 м
[Sc Cc]
+9.4 +6.1 80 +6 +6 1005.7 985.4
12 19.10 З 4-7
{9}
6000 м дымка 10/10 600 м
[Sc]
+11.3 +6.8 74 +9 +9 1004.7 984.6
15 19.10 З 4-7
{9}
20 км 9/9 600 м
[Sc]
+9.7 +6.1 78 +7 +7 1005.1 984.9 +11.3
18 19.10 З 3-5
{9}
20 км 6/6 600 м
[Sc]
+7.8 +5.1 83 +5 +5 1005.8 985.4
21 19.10 З 2-4
{7}
20 км 3/3 600 м
[Sc]
+4.7 +3.5 92 +2 +2 1006.9 986.3
00 20.10 З 2-3
{5}
20 км ясно +2.1 +1.3 94 -1 -1 1007.3 986.5
03 20.10 З 2-3
{3}
20 км 10/10 600 м
[Sc]
+2.9 +2.4 97 -0 -0 1007.3 986.6 +1.6
06 20.10 З 3-4
{5}
20 км 9/9 300 м
[Sc]
+4.6 +1.8 82 +1 +1 1007.7 987.1
09 20.10 СЗ 3-6
{8}
6000 м слабый ливневой дождь 9/9 300 м
[Cb cap]
+4.9 +3.2 89 +1 +2 1008.8 988.1
12 20.10 З 2-5
{7}
20 км {ливн. осадки} 8/5 300 м
[Cb cap Ac trans]
+4.8 +1.5 79 +2 +2 1010.2 989.5
15 20.10 З 2-4
{8}
20 км 8/0
[Ac trans]
+3.6 +1.5 86 +1 +1 1011.5 990.7 +5.5 0.5
18 20.10 СЗ 2-3
{6}
20 км {ливн. осадки} 9/9 600 м
[Sc]
+2.0 +0.4 89 -1 -1 1013.7 992.7
21 20.10 С 1-3
{6}
20 км 6/6 600 м
[Sc]
+0.3 -1.2 90 -2 -2 1016.2 995.0
00 21.10 З 2-3
{4}
20 км в посл. час ливневой снег 10/10 300 м
[Cb cap]
+0.4 -1.3 88 -3 -3 1017.8 996.6

 

Местоположение метеостанции Кирс (Кировская область, Россия): широта 59.35 долгота 52.25 высота над уровнем моря 169 м.

В архиве по умолчанию представлена погода в Кирсе за последнюю неделю. Архивные данные за месяц целиком и за предыдущие месяцы, начиная с января 2011 года, Вы можете получить, выбрав интересующий диапазон дат из раскрывающегося списка и нажав кнопку "Ввод!".


*Определитесь, кто Вы:
робот инопланетянин человек

Внимание! Время в таблицах - всемирное. Для получения местного времени необходимо прибавить поправку, которая в Кирсе равна 3 ч.

Смотрите также архив погоды в соседних городах и на ближайших метеорологических станциях:

Погода в Нагорске (Кировская область, Россия) (81 км)
Погода в Белой Холунице (Кировская область, Россия) (99 км)
Погода в Фаленках (Кировская область, Россия) (118 км)
Погода в Усть-Черной (Пермский край, Россия) (126 км)
Погода в Кочево (Пермский край, Россия) (128 км)
Погода в Глазове (Удмуртия, Россия) (137 км)
Погода в Кудымкаре (Пермский край, Россия) (142 км)
Погода в Койгородке (Коми, Россия) (142 км)
Погода в Гайнах (Пермский край, Россия) (156 км)
Погода в Косе (Пермский край, Россия) (168 км)

Пояснения к столбцам:

Ветер - указаны скорость ветра в м/с - средняя за 10 мин, порывы в срок и между сроками (в фигурных скобках) и направление, откуда дует ветер: С - северный, СВ - северо-восточный, В - восточный, ЮВ - юго-восточный, Ю - южный, ЮЗ - юго-западный, З - западный, СЗ - северо-западный.
Видимость - горизонтальная дальность видимости в метрах или километрах. При видимости от 1 до 10 км при отсутствии осадков обычно наблюдается дымка, при ухудшении видимости до 1 км и менее - туман. В сухую погоду видимость может ухудшаться дымом, пылью или мглою.
Явления - указаны атмосферные явления, наблюдавшиеся в срок или в последний час перед сроком; фигурными скобками обозначены явления, наблюдавшиеся между сроками (за 1-3 часа до срока); квадратными скобками обозначены град или гололедные отложения с указанием их диаметра в мм.
Облачность - указаны через наклонную черту общая и нижняя облачность в баллах и высота нижней границы облаков в метрах; квадратными скобками обозначены формы облаков: Ci - перистые, Cs - перисто-слоистые, Cc - перисто-кучевые, Ac - высококучевые, As - высокослоистые, Sc - слоисто-кучевые, Ns - слоисто-дождевые, Cu - кучевые, Cb - кучево-дождевые. Подробнее классификацию облаков см. в Атласе облаков (PDF).
T - Температура воздуха - температура, измеренная на высоте 2 м над землей.
Td - Температура точки росы - температура, при понижении до которой содержащийся в воздухе водяной пар достигнет насыщения.
f - Относительная влажность воздуха - влажноcть воздуха, измеренная на высоте 2 м над землей.
Te - Эффективная температура - температура, которую ощущает одетый по сезону человек в тени. Характеристика душности погоды. При расчете учитывается влияние влажности воздуха и скорости ветра на теплоощущения человека.
Tes - Эффективная температура на солнце - температура, которую ощущает человек, с поправкой на солнечный нагрев. Характеристика знойности погоды. Зависит от высоты солнца над горизонтом, облачности и скорости ветра. Ночью, в пасмурную погоду, а также при ветре 12 м/с и более поправка равна нулю.
P - Атмосферное давление - приведенное к уровню моря атмосферное давление.
Po - Атмосферное давление - измеренное на уровне метеостанции атмосферное давление.
Tmin - Минимальная температура - минимум температуры воздуха на высоте 2 м над землей.
Tmax - Максимальная температура - максимум температуры воздуха на высоте 2 м над землей.
R - Количество осадков - Количество выпавших осадков за период времени, мм. При наведении курсора мыши на число - период времени, за который выпало указанное количество осадков.
R24 - Количество осадков - Количество выпавших осадков за 24 часа, мм.
S - Снежный покров - Высота снежного покрова, см. При наведении курсора мыши на число - состояние снежного покрова и степень покрытия местности в баллах.